DECAYED

STARLINK-5583, 55768 (Decayed)

Orbit data source: Space-Track

STARLINK-5583, 55768 was a payload satellite owned by SpaceX/Seattle (US) in LEO that was launched on Fri, 03 Mar 2023 UTC via an FALCON 9 launch vehicle from the Air Force Western Test Range (AFWTR). Payload-class satellites include a variety of spacecraft equipped with specific instruments for various scientific and technological missions. These include communications satellites like Starlink; space stations such as the ISS; scientific satellites like the Hubble; Earth observation satellites from companies like Planet Labs, Umbra, and HawkEye 360; GPS; miniature CubeSats for education and research; and military/defense satellites.

Not visible in the next 10 days
Identifier
55768, 2023-028AD
Orbit
Decayed
Country
Flag of USUS
Related business
Manufacturer
SpaceX/Seattle
Mission
Decayed Commercial Communications
Bus & Motor
STARLINK, Unknown motor
Mass
305 kg wet, ~290 kg dry
Launch date (UTC)
2023-03-03 (3 years ago)
Launch vehicle
FALCON 9
Launch site
Air Force Western Test Range (AFWTR)
Object type
Payload
Rocket body
Debris
Shape & HBR
Box + 1 Pan, 10.1 m
Radar Cross Section
11.087 m², Large (>1 m²)

Expand to show TLE details & history
Last TLE update: 1 year ago

TLE from 1 year ago
0 STARLINK-5583
1 55768U 23028AD  25148.16817547  .17728541  44551-5  20454-3 0  9992
2 55768  70.0034 207.6086 0011728 250.8350 165.6182 16.49471904124166
Epoch: 2025-05-28T04:02Z
TLE epoch observation values (Epoch: 2025-05-28T04:02:10.360Z)
Latitude
51.70564°
Longitude
-71.61783°
Altitude
155.926 km
Speed
7.814 km/s
True Right ascension
15h 39m 31s
True Declination
51° 31' 22"
Sunlit
Object was in full shadow at epoch
Visualization orbit readout
Latitude
Unknown
Longitude
Unknown
Altitude
Unknown
Speed
Unknown
Apparent Right ascension
Unknown
Apparent Declination
Unknown
Sunlit
N/A
Visualization observer readout
Local Sidereal Time
21:28:24
Azimuth
Unknown
Elevation
Unknown
Doppler factor
Unknown
Orbital elements
Apogee altitude
146.181 km
Perigee altitude
130.895 km
Semi-major axis
6,516.675 km
Eccentricity
0.00117
Inclination
70.0034°
RAAN
207.6086°
Arg. of periapsis
250.835°
True anomaly
165.65153°
Mean anomaly
165.6182°
Eccentric anomaly
165.63487°
Mean motion
4.12576 °/min
Orbital period
87.26 mins
BSTAR
0.00020454
Loading maneuver chart data...
Computing Atmospheric mass density...
Loading historical data...
Loading historical data...
Loading historical data...
Loading historical data...
Loading historical data...
Loading historical data...
Loading historical data...

Documentation

Showing up to 5 results
|